contact:dominique.lefevre@mio.osupytheas.fr, maurice.libes@osupytheas.fr, didier.mallarino@osupytheas.fr
Project:EMSO http://www.emso-fr.org/EMSO-France
Depth: 2436.0 m
Title:EMSO Ligure Ouest : Data MII capteur AQUADOPP
Date,Latitude,Longitude,X_East,Y_North,Z_Up,Amplitude_X,Amplitude_Y,Amplitude_Z,Batterie,SoundSpeed,Heading,Pitch,Roll,Pressure,TIS,Speed,Direction
, degrees North, degrees East, m.s-1, m.s-1,m.s-1, 1, 1, 1, Volt, m.s-1, degree, degree, degree, dbar, degree_C, m.s-1, degree
2023-06-11T00:04:03,42.805,6.029,0.025,0.011,-0.014,101.0,102.0,102.0,13.4,1505.2,332.1,-0.7,1.8,2471.55,13.28,0.027,66.3
2023-06-11T00:07:03,42.805,6.029,0.052,-0.032,-0.035,102.0,101.0,102.0,13.4,1505.2,339.0,-0.8,1.8,2471.505,13.28,0.061,121.6
2023-06-11T00:10:03,42.805,6.029,0.018,-0.016,-0.028,103.0,102.0,100.0,13.4,1505.2,321.3,-0.7,1.8,2471.523,13.28,0.024,131.6
2023-06-11T00:13:03,42.805,6.029,0.026,0.015,-0.023,102.0,103.0,101.0,13.4,1505.2,323.8,-0.8,1.8,2471.532,13.28,0.03,60.0
2023-06-11T00:16:03,42.805,6.029,0.042,-0.021,-0.026,102.0,102.0,101.0,13.3,1505.2,322.4,-0.7,1.8,2471.529,13.29,0.046,116.6
2023-06-11T00:19:03,42.805,6.029,0.027,-0.007,-0.024,101.0,103.0,101.0,13.3,1505.2,334.4,-0.7,1.8,2471.546,13.29,0.027,104.5
2023-06-11T00:22:03,42.805,6.029,0.017,0.013,0.008,102.0,101.0,102.0,13.4,1505.2,322.4,-0.8,1.8,2471.527,13.29,0.021,52.6
2023-06-11T00:25:03,42.805,6.029,0.024,-0.008,-0.028,104.0,102.0,101.0,13.3,1505.2,330.9,-0.8,1.8,2471.493,13.29,0.025,108.4
2023-06-11T00:28:03,42.805,6.029,0.031,-0.032,-0.026,102.0,102.0,101.0,13.4,1505.2,339.1,-0.8,1.8,2471.491,13.29,0.044,135.9
2023-06-11T00:31:03,42.805,6.029,0.033,-0.001,-0.011,101.0,102.0,101.0,13.4,1505.2,336.6,-0.7,1.8,2471.471,13.29,0.033,91.7
2023-06-11T00:34:03,42.805,6.029,0.036,-0.012,-0.009,102.0,103.0,101.0,13.4,1505.2,331.6,-0.8,1.8,2471.516,13.29,0.037,108.4
2023-06-11T00:37:03,42.805,6.029,0.033,-0.027,-0.023,103.0,103.0,100.0,13.3,1505.2,331.3,-0.7,1.8,2471.541,13.29,0.042,129.3
2023-06-11T00:40:03,42.805,6.029,0.028,0.003,0.004,102.0,104.0,100.0,13.3,1505.2,329.8,-0.8,1.8,2471.521,13.29,0.028,83.9
2023-06-11T00:43:03,42.805,6.029,0.025,0.014,0.014,101.0,103.0,101.0,13.4,1505.2,333.4,-0.8,1.8,2471.542,13.29,0.028,60.7
2023-06-11T00:46:03,42.805,6.029,0.022,0.006,-0.009,101.0,103.0,102.0,13.4,1505.2,332.9,-0.8,1.8,2471.556,13.29,0.022,74.7
2023-06-11T00:49:03,42.805,6.029,0.01,0.006,0.02,102.0,101.0,102.0,13.4,1505.2,326.3,-0.8,1.8,2471.504,13.29,0.011,59.0
2023-06-11T00:52:03,42.805,6.029,0.026,-0.011,-0.018,100.0,102.0,102.0,13.4,1505.2,341.2,-0.8,1.8,2471.529,13.29,0.028,112.9
2023-06-11T00:55:03,42.805,6.029,0.045,0.003,0.027,101.0,101.0,102.0,13.4,1505.2,335.8,-0.7,1.8,2471.502,13.29,0.045,86.2
2023-06-11T00:58:03,42.805,6.029,0.012,-0.015,-0.02,101.0,102.0,100.0,13.4,1505.2,333.4,-0.7,1.8,2471.536,13.29,0.019,141.3
2023-06-11T02:04:02,42.805,6.029,0.04,-0.027,-0.041,101.0,102.0,101.0,13.4,1505.1,324.9,-0.8,1.8,2472.038,13.27,0.048,124.0
2023-06-11T02:07:03,42.805,6.029,0.017,0.007,-0.012,102.0,102.0,102.0,13.3,1505.2,322.0,-0.8,1.8,2471.922,13.28,0.018,67.6
2023-06-11T02:10:03,42.805,6.029,0.033,0.006,-0.015,101.0,103.0,100.0,13.3,1505.2,322.4,-0.8,1.9,2471.826,13.28,0.033,79.7
2023-06-11T02:13:03,42.805,6.029,0.022,0.017,0.001,101.0,102.0,101.0,13.4,1505.2,321.4,-0.7,1.8,2471.745,13.28,0.027,52.3
2023-06-11T02:16:03,42.805,6.029,0.026,-0.009,-0.002,102.0,103.0,101.0,13.4,1505.2,335.9,-0.8,1.8,2471.693,13.28,0.027,109.1
2023-06-11T02:19:03,42.805,6.029,0.038,-0.02,0.005,101.0,103.0,101.0,13.4,1505.2,351.0,-0.8,1.8,2471.64,13.28,0.042,117.8
2023-06-11T02:22:03,42.805,6.029,0.026,0.0,0.003,101.0,102.0,101.0,13.4,1505.2,340.8,-0.8,1.8,2471.611,13.28,0.026,90.0
2023-06-11T02:25:03,42.805,6.029,0.036,-0.006,-0.003,102.0,100.0,102.0,13.3,1505.2,329.3,-0.7,1.8,2471.555,13.29,0.036,99.5
2023-06-11T02:28:03,42.805,6.029,0.038,0.004,0.005,101.0,101.0,102.0,13.4,1505.2,321.8,-0.7,1.8,2471.543,13.29,0.038,84.0
2023-06-11T02:31:03,42.805,6.029,0.032,0.003,-0.013,101.0,101.0,102.0,13.3,1505.2,323.8,-0.7,1.9,2471.513,13.29,0.032,84.6
2023-06-11T02:34:03,42.805,6.029,0.062,-0.015,-0.039,102.0,102.0,100.0,13.3,1505.2,321.9,-0.8,1.8,2471.487,13.29,0.063,103.6
2023-06-11T02:37:03,42.805,6.029,0.033,-0.018,-0.023,102.0,103.0,100.0,13.3,1505.2,330.8,-0.8,1.8,2471.525,13.29,0.037,118.6
2023-06-11T02:40:03,42.805,6.029,0.042,-0.017,0.009,101.0,102.0,101.0,13.4,1505.2,336.6,-0.8,1.8,2471.538,13.29,0.045,112.0
2023-06-11T02:43:03,42.805,6.029,0.027,0.005,0.009,101.0,101.0,102.0,13.4,1505.2,333.8,-0.8,1.8,2471.468,13.29,0.027,79.5
2023-06-11T02:46:03,42.805,6.029,0.025,-0.013,-0.013,101.0,101.0,101.0,13.4,1505.2,327.8,-0.7,1.8,2471.464,13.29,0.028,117.5
2023-06-11T02:49:03,42.805,6.029,0.013,0.006,-0.02,101.0,101.0,102.0,13.4,1505.2,323.3,-0.8,1.8,2471.482,13.29,0.014,65.2
2023-06-11T02:52:03,42.805,6.029,0.007,0.022,0.01,102.0,104.0,101.0,13.4,1505.2,328.7,-0.8,1.8,2471.476,13.29,0.023,17.6
2023-06-11T02:55:03,42.805,6.029,0.034,0.002,0.032,103.0,101.0,101.0,13.3,1505.2,320.7,-0.8,1.8,2471.489,13.29,0.034,86.6
2023-06-11T02:58:03,42.805,6.029,0.036,-0.004,-0.029,102.0,102.0,101.0,13.4,1505.2,320.8,-0.7,1.8,2471.474,13.29,0.036,96.3
2023-06-11T03:04:03,42.805,6.029,0.013,0.003,-0.019,102.0,102.0,101.0,13.4,1505.2,328.4,-0.8,1.8,2471.537,13.28,0.013,77.0
2023-06-11T03:07:03,42.805,6.029,0.012,-0.012,-0.005,101.0,102.0,100.0,13.3,1505.2,340.2,-0.8,1.8,2471.52,13.28,0.016,135.0
2023-06-11T03:10:03,42.805,6.029,0.047,0.005,0.002,102.0,102.0,101.0,13.3,1505.2,329.1,-0.8,1.8,2471.483,13.28,0.047,83.9
2023-06-11T03:13:03,42.805,6.029,0.03,-0.039,-0.023,102.0,102.0,101.0,13.4,1505.2,335.2,-0.8,1.8,2471.476,13.28,0.049,142.4
2023-06-11T03:16:03,42.805,6.029,0.006,0.003,-0.011,101.0,101.0,101.0,13.3,1505.2,320.4,-0.8,1.8,2471.501,13.29,0.006,63.4
2023-06-11T03:19:03,42.805,6.029,0.025,0.02,-0.01,102.0,101.0,101.0,13.4,1505.2,323.6,-0.8,1.8,2471.464,13.29,0.032,51.3
2023-06-11T03:22:03,42.805,6.029,0.018,0.003,-0.035,102.0,101.0,102.0,13.4,1505.2,325.8,-0.8,1.8,2471.482,13.29,0.018,80.5
2023-06-11T03:25:03,42.805,6.029,0.024,-0.006,-0.03,102.0,102.0,101.0,13.3,1505.2,325.0,-0.7,1.8,2471.459,13.29,0.024,104.0
2023-06-11T03:28:03,42.805,6.029,0.06,0.005,0.008,101.0,101.0,101.0,13.4,1505.2,318.9,-0.8,1.8,2471.481,13.29,0.06,85.2
2023-06-11T03:31:03,42.805,6.029,0.021,0.002,-0.028,101.0,102.0,101.0,13.3,1505.2,344.2,-0.8,1.8,2471.495,13.29,0.021,84.6
2023-06-11T03:34:03,42.805,6.029,0.035,-0.004,-0.005,103.0,103.0,100.0,13.3,1505.2,340.2,-0.8,1.8,2471.434,13.29,0.035,96.5
2023-06-11T03:37:03,42.805,6.029,0.033,-0.023,-0.022,100.0,101.0,101.0,13.4,1505.2,332.4,-0.8,1.8,2471.428,13.29,0.04,124.9
2023-06-11T03:40:03,42.805,6.029,0.03,-0.026,-0.019,102.0,102.0,100.0,13.4,1505.2,327.9,-0.8,1.8,2471.421,13.29,0.039,130.9
2023-06-11T03:43:03,42.805,6.029,0.041,-0.048,-0.08,102.0,102.0,101.0,13.4,1505.2,326.8,-0.7,1.9,2471.483,13.29,0.063,139.5
2023-06-11T03:46:03,42.805,6.029,0.044,-0.003,0.006,102.0,103.0,100.0,13.3,1505.2,339.4,-0.7,1.8,2471.433,13.29,0.044,93.9
2023-06-11T03:49:03,42.805,6.029,0.023,-0.032,-0.005,102.0,102.0,101.0,13.3,1505.2,340.9,-0.8,1.8,2471.448,13.29,0.039,144.3
2023-06-11T03:52:03,42.805,6.029,0.02,0.013,-0.007,101.0,102.0,101.0,13.4,1505.2,350.1,-0.8,1.8,2471.447,13.29,0.023,57.0
2023-06-11T03:55:03,42.805,6.029,0.036,-0.003,-0.027,100.0,102.0,102.0,13.3,1505.2,330.6,-0.7,1.8,2471.449,13.29,0.036,94.8
2023-06-11T03:58:03,42.805,6.029,0.033,-0.006,0.011,101.0,102.0,101.0,13.3,1505.2,327.1,-0.8,1.8,2471.423,13.29,0.033,100.3
2023-06-11T04:04:03,42.805,6.029,0.012,-0.019,-0.04,101.0,103.0,100.0,13.4,1505.2,332.5,-0.8,1.8,2471.476,13.28,0.022,147.7
2023-06-11T04:07:03,42.805,6.029,0.052,-0.037,-0.018,103.0,100.0,100.0,13.3,1505.2,338.9,-0.8,1.8,2471.48,13.28,0.063,125.4
2023-06-11T04:10:03,42.805,6.029,0.015,-0.01,-0.014,101.0,102.0,102.0,13.4,1505.2,346.5,-0.7,1.8,2471.485,13.28,0.018,123.7
2023-06-11T04:13:03,42.805,6.029,0.041,-0.016,0.007,102.0,103.0,101.0,13.4,1505.2,345.3,-0.8,1.8,2471.466,13.28,0.044,111.3
2023-06-11T04:16:03,42.805,6.029,0.03,-0.02,-0.027,100.0,103.0,102.0,13.4,1505.2,328.7,-0.8,1.8,2471.48,13.29,0.036,123.7
2023-06-11T04:19:03,42.805,6.029,0.022,-0.015,-0.013,101.0,103.0,101.0,13.3,1505.2,329.5,-0.7,1.8,2471.435,13.29,0.026,124.3
2023-06-11T04:22:03,42.805,6.029,0.032,-0.008,-0.017,102.0,102.0,101.0,13.3,1505.2,339.6,-0.7,1.8,2471.468,13.29,0.032,104.0
2023-06-11T04:25:03,42.805,6.029,0.019,-0.011,-0.046,101.0,103.0,103.0,13.4,1505.2,329.8,-0.8,1.8,2471.434,13.29,0.021,120.1
2023-06-11T04:28:03,42.805,6.029,0.046,0.009,0.021,101.0,103.0,101.0,13.4,1505.2,326.0,-0.7,1.8,2471.462,13.29,0.046,78.9
2023-06-11T04:31:03,42.805,6.029,0.023,0.0,0.0,101.0,102.0,101.0,13.4,1505.2,333.0,-0.7,1.8,2471.477,13.29,0.023,90.0
2023-06-11T04:34:03,42.805,6.029,0.023,-0.027,-0.032,102.0,101.0,102.0,13.3,1505.2,322.5,-0.7,1.8,2471.446,13.29,0.035,139.6
2023-06-11T04:37:03,42.805,6.029,0.023,0.016,0.01,103.0,102.0,100.0,13.3,1505.2,326.0,-0.8,1.8,2471.41,13.29,0.028,55.2
2023-06-11T04:40:03,42.805,6.029,0.034,0.0,0.021,102.0,102.0,101.0,13.4,1505.2,334.4,-0.8,1.8,2471.42,13.29,0.034,90.0
2023-06-11T04:43:03,42.805,6.029,0.044,-0.017,-0.01,101.0,103.0,101.0,13.4,1505.2,331.8,-0.8,1.8,2471.459,13.29,0.047,111.1
2023-06-11T04:46:03,42.805,6.029,0.041,0.009,0.017,102.0,102.0,101.0,13.4,1505.2,329.2,-0.8,1.8,2471.403,13.29,0.041,77.6
2023-06-11T04:49:03,42.805,6.029,0.041,-0.002,0.003,101.0,102.0,102.0,13.4,1505.2,320.6,-0.7,1.8,2471.428,13.29,0.041,92.8
2023-06-11T04:52:03,42.805,6.029,0.029,-0.001,0.012,103.0,102.0,100.0,13.4,1505.2,321.7,-0.8,1.8,2471.432,13.29,0.029,92.0
2023-06-11T04:55:03,42.805,6.029,0.043,0.012,0.005,102.0,101.0,101.0,13.4,1505.2,323.6,-0.7,1.8,2471.409,13.29,0.044,74.4
2023-06-11T04:58:03,42.805,6.029,0.014,-0.006,-0.006,102.0,100.0,101.0,13.3,1505.2,322.5,-0.7,1.8,2471.333,13.29,0.015,113.2
2023-06-11T05:04:03,42.805,6.029,0.035,-0.004,0.005,102.0,102.0,101.0,13.4,1505.2,331.3,-0.8,1.8,2471.416,13.28,0.035,96.5
2023-06-11T05:07:03,42.805,6.029,0.035,-0.018,-0.027,102.0,102.0,101.0,13.4,1505.2,336.1,-0.8,1.8,2471.479,13.28,0.039,117.2
2023-06-11T05:10:03,42.805,6.029,0.019,0.014,0.0,103.0,101.0,100.0,13.4,1505.2,331.2,-0.8,1.9,2471.438,13.28,0.023,53.6
2023-06-11T05:13:03,42.805,6.029,0.024,-0.01,-0.014,101.0,103.0,101.0,13.4,1505.2,340.2,-0.8,1.8,2471.448,13.28,0.026,112.6
2023-06-11T05:16:03,42.805,6.029,0.029,0.006,0.0,102.0,103.0,100.0,13.4,1505.2,339.9,-0.8,1.8,2471.438,13.29,0.029,78.3
2023-06-11T05:19:03,42.805,6.029,0.01,0.006,-0.012,102.0,103.0,101.0,13.4,1505.2,342.9,-0.7,1.8,2471.421,13.29,0.011,59.0
2023-06-11T05:22:03,42.805,6.029,0.028,-0.003,-0.019,102.0,102.0,101.0,13.4,1505.2,330.0,-0.8,1.8,2471.433,13.29,0.028,96.1
2023-06-11T05:25:03,42.805,6.029,0.04,-0.005,-0.014,101.0,103.0,102.0,13.4,1505.2,341.5,-0.7,1.8,2471.401,13.29,0.04,97.1
2023-06-11T05:28:03,42.805,6.029,0.024,-0.019,-0.044,103.0,101.0,101.0,13.4,1505.2,331.2,-0.8,1.8,2471.398,13.29,0.03,128.4
2023-06-11T05:31:03,42.805,6.029,0.025,0.001,-0.009,100.0,102.0,101.0,13.4,1505.2,338.6,-0.8,1.8,2471.406,13.29,0.025,87.7
2023-06-11T05:34:03,42.805,6.029,0.023,-0.025,-0.016,101.0,103.0,101.0,13.4,1505.2,340.8,-0.8,1.8,2471.384,13.29,0.033,137.4
2023-06-11T05:37:03,42.805,6.029,0.032,-0.02,-0.005,102.0,103.0,101.0,13.4,1505.2,341.5,-0.8,1.8,2471.391,13.29,0.037,122.0
2023-06-11T05:40:03,42.805,6.029,0.015,0.0,-0.005,102.0,102.0,101.0,13.4,1505.2,341.9,-0.8,1.8,2471.37,13.29,0.015,90.0
2023-06-11T05:43:03,42.805,6.029,0.029,-0.029,-0.014,101.0,103.0,101.0,13.3,1505.2,336.1,-0.8,1.8,2471.396,13.29,0.041,135.0
2023-06-11T05:46:03,42.805,6.029,0.038,0.012,-0.002,102.0,103.0,100.0,13.4,1505.2,327.3,-0.7,1.8,2471.396,13.29,0.039,72.5
2023-06-11T05:49:03,42.805,6.029,0.02,-0.002,-0.025,102.0,102.0,101.0,13.4,1505.2,344.2,-0.8,1.8,2471.381,13.29,0.02,95.7
2023-06-11T05:52:03,42.805,6.029,0.033,-0.013,-0.027,101.0,101.0,102.0,13.4,1505.2,343.5,-0.8,1.8,2471.391,13.29,0.035,111.5
2023-06-11T05:55:03,42.805,6.029,0.012,-0.005,-0.024,102.0,101.0,101.0,13.4,1505.2,339.3,-0.8,1.8,2471.404,13.29,0.013,112.6
2023-06-11T05:58:03,42.805,6.029,0.026,-0.021,-0.039,102.0,101.0,101.0,13.4,1505.2,329.5,-0.8,1.8,2471.399,13.29,0.033,128.9
2023-06-11T06:04:03,42.805,6.029,0.022,-0.023,-0.05,102.0,101.0,101.0,13.4,1505.2,338.9,-0.8,1.8,2471.414,13.28,0.031,136.3
2023-06-11T06:07:03,42.805,6.029,0.009,0.016,0.008,101.0,102.0,101.0,13.3,1505.2,337.9,-0.7,1.8,2471.419,13.28,0.018,29.4
2023-06-11T06:10:03,42.805,6.029,0.045,-0.017,-0.002,102.0,103.0,100.0,13.3,1505.2,339.7,-0.8,1.8,2471.424,13.28,0.048,110.7
2023-06-11T06:13:03,42.805,6.029,0.028,-0.011,-0.023,103.0,102.0,102.0,13.4,1505.2,329.0,-0.8,1.8,2471.399,13.28,0.03,111.4
2023-06-11T06:16:03,42.805,6.029,0.058,-0.019,0.009,102.0,104.0,100.0,13.4,1505.2,332.4,-0.8,1.8,2471.411,13.29,0.061,108.1
2023-06-11T06:19:03,42.805,6.029,0.042,-0.017,0.002,100.0,102.0,101.0,13.3,1505.2,321.7,-0.8,1.8,2471.361,13.29,0.045,112.0
2023-06-11T06:22:03,42.805,6.029,-0.003,0.006,-0.009,102.0,103.0,100.0,13.4,1505.2,323.3,-0.7,1.8,2471.381,13.29,0.006,333.4
2023-06-11T06:25:03,42.805,6.029,0.037,0.009,0.011,101.0,103.0,101.0,13.3,1505.2,329.2,-0.8,1.8,2471.416,13.29,0.038,76.3
2023-06-11T06:28:03,42.805,6.029,0.023,-0.002,-0.003,101.0,103.0,101.0,13.4,1505.2,325.5,-0.8,1.8,2471.37,13.29,0.023,95.0
2023-06-11T06:31:03,42.805,6.029,0.03,-0.003,-0.014,103.0,101.0,103.0,13.3,1505.2,327.0,-0.8,1.8,2471.356,13.29,0.03,95.7
2023-06-11T06:34:03,42.805,6.029,0.023,-0.007,-0.012,102.0,101.0,101.0,13.3,1505.2,318.8,-0.8,1.8,2471.367,13.29,0.024,106.9
2023-06-11T06:37:03,42.805,6.029,0.018,-0.021,-0.001,101.0,102.0,101.0,13.4,1505.2,349.1,-0.8,1.8,2471.34,13.29,0.027,139.4
2023-06-11T06:40:03,42.805,6.029,0.019,-0.009,-0.006,103.0,102.0,100.0,13.3,1505.2,343.6,-0.7,1.8,2471.361,13.29,0.021,115.3
2023-06-11T06:43:03,42.805,6.029,0.055,-0.015,-0.009,103.0,101.0,100.0,13.3,1505.2,337.3,-0.8,1.8,2471.375,13.29,0.057,105.3
2023-06-11T06:46:03,42.805,6.029,0.012,-0.005,-0.045,103.0,101.0,102.0,13.4,1505.2,318.9,-0.8,1.8,2471.348,13.29,0.013,112.6
2023-06-11T06:49:03,42.805,6.029,0.031,0.004,-0.003,102.0,103.0,101.0,13.3,1505.2,329.1,-0.8,1.8,2471.374,13.29,0.031,82.7
2023-06-11T06:52:03,42.805,6.029,0.025,-0.001,-0.015,102.0,103.0,101.0,13.4,1505.2,321.3,-0.8,1.8,2471.353,13.29,0.025,92.3
2023-06-11T06:55:03,42.805,6.029,0.037,-0.005,-0.016,102.0,102.0,101.0,13.4,1505.2,318.9,-0.8,1.8,2471.336,13.29,0.037,97.7
2023-06-11T06:58:03,42.805,6.029,0.05,-0.01,-0.005,102.0,103.0,101.0,13.4,1505.2,324.2,-0.8,1.8,2471.355,13.29,0.05,101.3
2023-06-11T07:04:03,42.805,6.029,0.026,-0.004,0.002,102.0,102.0,102.0,13.3,1505.2,332.1,-0.8,1.8,2471.379,13.28,0.026,98.7
2023-06-11T07:07:03,42.805,6.029,-0.002,0.021,0.022,101.0,102.0,102.0,13.4,1505.2,337.1,-0.7,1.8,2471.388,13.28,0.021,354.6
2023-06-11T07:10:03,42.805,6.029,0.019,0.009,0.038,101.0,101.0,101.0,13.3,1505.2,326.0,-0.8,1.8,2471.367,13.28,0.021,64.7
2023-06-11T07:13:03,42.805,6.029,-0.003,0.016,-0.017,102.0,101.0,101.0,13.4,1505.2,325.4,-0.7,1.8,2471.363,13.29,0.016,349.4
2023-06-11T07:16:03,42.805,6.029,0.027,-0.004,-0.016,103.0,102.0,101.0,13.4,1505.2,335.2,-0.7,1.8,2471.343,13.29,0.027,98.4
2023-06-11T07:19:03,42.805,6.029,0.044,-0.023,-0.029,101.0,103.0,102.0,13.4,1505.2,319.9,-0.8,1.8,2471.362,13.29,0.049,117.6
2023-06-11T07:22:03,42.805,6.029,0.029,-0.006,0.023,103.0,101.0,101.0,13.4,1505.2,338.4,-0.8,1.8,2471.322,13.29,0.029,101.7
2023-06-11T07:25:03,42.805,6.029,0.002,0.019,-0.039,102.0,102.0,101.0,13.3,1505.2,321.8,-0.8,1.8,2471.327,13.29,0.019,6.0
2023-06-11T07:28:03,42.805,6.029,0.038,0.005,0.01,103.0,102.0,101.0,13.4,1505.2,323.1,-0.8,1.8,2471.352,13.29,0.038,82.5
2023-06-11T07:31:03,42.805,6.029,0.034,-0.022,0.004,102.0,103.0,101.0,13.4,1505.2,340.9,-0.8,1.8,2471.314,13.29,0.04,122.9
2023-06-11T07:34:03,42.805,6.029,0.039,-0.02,0.016,102.0,102.0,101.0,13.3,1505.2,348.6,-0.7,1.8,2471.333,13.29,0.043,117.1
2023-06-11T07:37:03,42.805,6.029,0.024,-0.025,-0.017,101.0,103.0,101.0,13.4,1505.2,341.2,-0.8,1.8,2471.338,13.29,0.034,136.2
2023-06-11T07:40:03,42.805,6.029,0.071,-0.006,0.024,101.0,104.0,101.0,13.4,1505.2,325.1,-0.8,1.8,2471.338,13.29,0.071,94.8
2023-06-11T07:43:03,42.805,6.029,0.067,-0.003,0.005,102.0,102.0,100.0,13.3,1505.2,323.3,-0.8,1.8,2471.309,13.29,0.067,92.6
2023-06-11T07:46:03,42.805,6.029,0.02,0.019,-0.005,101.0,102.0,104.0,13.4,1505.2,319.4,-0.8,1.8,2471.337,13.29,0.027,46.5
2023-06-11T07:49:03,42.805,6.029,0.021,-0.01,0.006,103.0,103.0,100.0,13.4,1505.2,320.7,-0.8,1.8,2471.328,13.29,0.023,115.5
2023-06-11T07:52:03,42.805,6.029,0.02,-0.007,-0.019,100.0,103.0,102.0,13.3,1505.2,323.9,-0.7,1.9,2471.312,13.29,0.021,109.3
2023-06-11T07:55:03,42.805,6.029,0.028,0.001,-0.002,102.0,102.0,102.0,13.3,1505.2,336.1,-0.7,1.8,2471.318,13.29,0.028,88.0
2023-06-11T07:58:03,42.805,6.029,0.019,-0.004,0.003,103.0,101.0,102.0,13.4,1505.2,329.6,-0.7,1.8,2471.26,13.29,0.019,101.9
2023-06-11T08:04:03,42.805,6.029,0.009,0.011,0.0,102.0,103.0,101.0,13.4,1505.2,330.0,-0.8,1.8,2471.355,13.28,0.014,39.3
2023-06-11T08:07:03,42.805,6.029,0.032,0.0,-0.015,102.0,102.0,102.0,13.4,1505.2,337.4,-0.8,1.8,2471.352,13.28,0.032,90.0
2023-06-11T08:10:03,42.805,6.029,0.036,-0.017,-0.039,102.0,102.0,102.0,13.4,1505.2,332.5,-0.7,1.8,2471.355,13.28,0.039,115.3
2023-06-11T08:13:03,42.805,6.029,0.04,-0.01,-0.012,102.0,103.0,100.0,13.3,1505.2,334.5,-0.8,1.8,2471.365,13.28,0.041,104.0
2023-06-11T08:16:03,42.805,6.029,-0.002,0.003,-0.023,102.0,103.0,101.0,13.3,1505.2,335.9,-0.8,1.8,2471.336,13.29,0.003,326.3
2023-06-11T08:19:03,42.805,6.029,0.007,0.0,-0.021,103.0,102.0,101.0,13.4,1505.2,335.4,-0.7,1.8,2471.342,13.29,0.007,90.0
2023-06-11T08:22:03,42.805,6.029,0.03,-0.01,0.008,101.0,102.0,102.0,13.3,1505.2,340.8,-0.8,1.8,2471.358,13.29,0.031,108.4
2023-06-11T08:25:03,42.805,6.029,0.026,-0.003,-0.022,103.0,102.0,101.0,13.4,1505.2,342.9,-0.7,1.8,2471.289,13.29,0.026,96.6
2023-06-11T08:28:03,42.805,6.029,0.023,-0.016,-0.007,103.0,102.0,100.0,13.3,1505.2,331.6,-0.7,1.8,2471.353,13.29,0.028,124.8
2023-06-11T08:31:03,42.805,6.029,0.041,-0.027,-0.015,102.0,103.0,100.0,13.4,1505.2,333.4,-0.7,1.8,2471.362,13.29,0.049,123.4
2023-06-11T08:34:03,42.805,6.029,0.024,-0.004,0.033,101.0,103.0,101.0,13.3,1505.2,338.8,-0.7,1.8,2471.305,13.29,0.024,99.5
2023-06-11T08:37:03,42.805,6.029,0.021,0.0,0.002,103.0,101.0,101.0,13.4,1505.2,341.9,-0.7,1.8,2471.35,13.29,0.021,90.0
2023-06-11T08:40:03,42.805,6.029,0.005,-0.02,-0.043,101.0,104.0,100.0,13.4,1505.2,336.9,-0.8,1.8,2471.37,13.29,0.02,166.0
2023-06-11T08:43:03,42.805,6.029,0.029,-0.02,-0.032,102.0,102.0,101.0,13.4,1505.2,337.2,-0.8,1.8,2471.296,13.29,0.035,124.6
2023-06-11T08:46:03,42.805,6.029,0.028,0.0,0.01,103.0,101.0,102.0,13.3,1505.2,336.2,-0.8,1.8,2471.292,13.29,0.028,90.0
2023-06-11T08:49:03,42.805,6.029,0.02,0.006,-0.027,102.0,102.0,101.0,13.3,1505.2,339.7,-0.8,1.8,2471.339,13.29,0.02,73.3
2023-06-11T08:52:03,42.805,6.029,0.019,-0.024,-0.024,102.0,102.0,101.0,13.4,1505.2,335.2,-0.8,1.8,2471.314,13.29,0.03,141.6
2023-06-11T08:55:03,42.805,6.029,0.03,0.004,0.024,102.0,102.0,101.0,13.4,1505.2,337.6,-0.8,1.8,2471.301,13.29,0.03,82.4
2023-06-11T08:58:03,42.805,6.029,0.019,0.003,-0.002,102.0,102.0,101.0,13.4,1505.2,322.4,-0.8,1.8,2471.338,13.29,0.019,81.0
2023-06-11T09:04:03,42.805,6.029,0.031,0.0,-0.006,102.0,102.0,102.0,13.4,1505.2,326.0,-0.7,1.8,2471.362,13.28,0.03,90.0
2023-06-11T09:07:03,42.805,6.029,0.026,0.003,-0.02,102.0,101.0,102.0,13.4,1505.2,337.5,-0.8,1.8,2471.338,13.28,0.026,83.4
2023-06-11T09:10:03,42.805,6.029,0.017,-0.022,-0.033,102.0,102.0,101.0,13.4,1505.2,339.5,-0.8,1.8,2471.356,13.28,0.027,142.3
2023-06-11T09:13:03,42.805,6.029,0.022,-0.012,-0.029,103.0,103.0,100.0,13.4,1505.2,328.2,-0.8,1.8,2471.374,13.28,0.025,118.6
2023-06-11T09:16:03,42.805,6.029,0.025,0.001,-0.009,101.0,102.0,101.0,13.4,1505.2,340.1,-0.7,1.8,2471.368,13.29,0.025,87.7
2023-06-11T09:19:03,42.805,6.029,0.016,-0.002,-0.039,102.0,101.0,102.0,13.3,1505.2,327.8,-0.8,1.8,2471.343,13.29,0.016,97.1
2023-06-11T09:22:03,42.805,6.029,0.028,-0.012,0.0,102.0,101.0,101.0,13.4,1505.2,333.4,-0.8,1.8,2471.339,13.29,0.03,113.2
2023-06-11T09:25:03,42.805,6.029,0.037,0.001,0.007,101.0,102.0,101.0,13.4,1505.2,342.3,-0.8,1.8,2471.318,13.29,0.037,88.5
2023-06-11T09:28:03,42.805,6.029,0.014,0.001,0.006,101.0,102.0,101.0,13.3,1505.2,348.6,-0.8,1.8,2471.355,13.29,0.014,85.9
2023-06-11T09:31:03,42.805,6.029,0.013,-0.007,-0.019,101.0,101.0,101.0,13.3,1505.2,341.9,-0.7,1.8,2471.347,13.29,0.014,118.3
2023-06-11T09:34:03,42.805,6.029,0.006,-0.002,-0.023,101.0,101.0,101.0,13.3,1505.2,348.2,-0.8,1.8,2471.37,13.29,0.006,108.4
2023-06-11T09:37:03,42.805,6.029,0.015,-0.008,-0.042,102.0,101.0,101.0,13.3,1505.2,335.8,-0.8,1.8,2471.346,13.29,0.017,118.1
2023-06-11T09:40:03,42.805,6.029,0.019,-0.007,-0.035,101.0,101.0,100.0,13.4,1505.2,323.1,-0.7,1.8,2471.292,13.29,0.02,110.2
2023-06-11T09:43:03,42.805,6.029,0.035,-0.008,-0.045,101.0,101.0,101.0,13.4,1505.2,321.8,-0.8,1.8,2471.346,13.29,0.035,102.9
2023-06-11T09:46:03,42.805,6.029,0.008,0.005,-0.021,100.0,100.0,102.0,13.4,1505.2,321.7,-0.8,1.8,2471.335,13.29,0.009,58.0
2023-06-11T09:49:03,42.805,6.029,0.006,0.004,0.014,101.0,102.0,105.0,13.3,1505.2,338.4,-0.8,1.8,2471.366,13.29,0.007,56.3
2023-06-11T09:52:03,42.805,6.029,0.01,0.013,0.028,103.0,102.0,101.0,13.3,1505.2,333.0,-0.8,1.8,2471.356,13.29,0.016,37.6
2023-06-11T09:55:03,42.805,6.029,0.057,-0.034,-0.004,101.0,101.0,101.0,13.3,1505.2,338.2,-0.8,1.8,2471.314,13.29,0.066,120.8
2023-06-11T09:58:03,42.805,6.029,0.022,0.008,-0.019,101.0,103.0,101.0,13.4,1505.2,338.6,-0.8,1.8,2471.366,13.29,0.023,70.0
2023-06-11T10:04:03,42.805,6.029,0.026,-0.006,0.004,101.0,101.0,102.0,13.4,1505.2,337.7,-0.8,1.8,2471.4,13.28,0.026,103.0
2023-06-11T10:07:03,42.805,6.029,0.036,-0.012,-0.017,102.0,105.0,101.0,13.3,1505.2,328.2,-0.7,1.8,2471.402,13.28,0.037,108.4
2023-06-11T10:10:03,42.805,6.029,0.033,-0.024,-0.01,100.0,101.0,102.0,13.4,1505.2,340.1,-0.8,1.8,2471.36,13.28,0.04,126.0
2023-06-11T10:13:03,42.805,6.029,0.013,-0.027,-0.017,100.0,101.0,102.0,13.4,1505.2,330.3,-0.8,1.8,2471.391,13.29,0.029,154.3
2023-06-11T10:16:03,42.805,6.029,0.048,0.011,0.029,101.0,102.0,101.0,13.4,1505.2,336.6,-0.7,1.9,2471.371,13.29,0.049,77.1
2023-06-11T10:19:03,42.805,6.029,0.027,-0.014,-0.024,102.0,101.0,100.0,13.3,1505.2,328.2,-0.8,1.8,2471.347,13.29,0.03,117.4
2023-06-11T10:22:03,42.805,6.029,0.022,-0.016,-0.036,101.0,101.0,101.0,13.4,1505.2,344.6,-0.8,1.8,2471.378,13.29,0.027,126.0
2023-06-11T10:25:03,42.805,6.029,0.053,-0.006,0.015,101.0,103.0,101.0,13.3,1505.2,331.3,-0.8,1.8,2471.363,13.29,0.053,96.5
2023-06-11T10:28:03,42.805,6.029,0.012,0.004,-0.004,100.0,103.0,101.0,13.4,1505.2,328.2,-0.7,1.8,2471.374,13.29,0.012,71.6
2023-06-11T10:31:03,42.805,6.029,0.023,-0.01,-0.018,101.0,101.0,101.0,13.4,1505.2,329.0,-0.8,1.8,2471.354,13.29,0.025,113.5
2023-06-11T10:34:03,42.805,6.029,0.01,0.028,0.005,101.0,102.0,101.0,13.4,1505.2,335.6,-0.8,1.8,2471.351,13.29,0.029,19.6
2023-06-11T10:37:03,42.805,6.029,0.031,-0.036,-0.04,101.0,101.0,101.0,13.4,1505.2,342.2,-0.8,1.8,2471.343,13.29,0.047,139.3
2023-06-11T10:40:03,42.805,6.029,0.022,-0.024,-0.036,102.0,103.0,101.0,13.4,1505.2,340.5,-0.8,1.8,2471.391,13.29,0.032,137.5
2023-06-11T10:43:03,42.805,6.029,0.038,-0.018,-0.024,101.0,100.0,102.0,13.4,1505.2,323.9,-0.8,1.8,2471.337,13.29,0.042,115.3
2023-06-11T10:46:03,42.805,6.029,0.037,-0.008,0.003,102.0,100.0,101.0,13.4,1505.2,349.5,-0.8,1.8,2471.362,13.29,0.037,102.2
2023-06-11T10:49:03,42.805,6.029,0.027,0.015,0.0,101.0,103.0,101.0,13.4,1505.2,338.9,-0.7,1.8,2471.354,13.29,0.03,60.9
2023-06-11T10:52:03,42.805,6.029,0.012,0.041,0.024,101.0,102.0,101.0,13.4,1505.2,340.0,-0.8,1.8,2471.364,13.29,0.042,16.3
2023-06-11T10:55:03,42.805,6.029,0.032,-0.02,0.015,103.0,102.0,100.0,13.4,1505.2,341.1,-0.7,1.8,2471.35,13.29,0.037,122.0
2023-06-11T10:58:03,42.805,6.029,0.015,-0.026,-0.041,102.0,102.0,100.0,13.4,1505.2,340.0,-0.8,1.8,2471.371,13.29,0.03,150.0